This is the latest recevied weather packets stored in our database for station/object PA1CD-13. If no packets are shown the sender has not sent any weather packets the latest 1 day(s).
| Time | Temp. | Humidity | Pressure | Rain* | Wind** | Luminosity | Snow |
|---|---|---|---|---|---|---|---|
| 1777977063 | 13.33° C | 62% | 1011 hPa | 0 mm | 0.89 m/s, 0° | 877 W/m² | - |
| 1777976942 | 13.33° C | 63% | 1011 hPa | 0 mm | 1.79 m/s, 69° | 902 W/m² | - |
| 1777976823 | 13.33° C | 63% | 1011 hPa | 0 mm | 0.89 m/s, 0° | 881 W/m² | - |
| 1777976704 | 13.33° C | 62% | 1011.1 hPa | 0 mm | 4.02 m/s, 0° | 276 W/m² | - |
| 1777976582 | 13.33° C | 62% | 1011.1 hPa | 0 mm | 1.79 m/s, 61° | 276 W/m² | - |
| 1777976464 | 13.33° C | 62% | 1011 hPa | 0 mm | 1.79 m/s, 83° | 832 W/m² | - |
| 1777976343 | 13.33° C | 62% | 1011 hPa | 0 mm | 0.89 m/s, 0° | 879 W/m² | - |
| 1777976222 | 13.33° C | 62% | 1011 hPa | 0 mm | 3.13 m/s, 62° | 812 W/m² | - |
| 1777976103 | 12.78° C | 61% | 1011 hPa | 0 mm | 1.34 m/s, 63° | 673 W/m² | - |
| 1777975982 | 12.78° C | 61% | 1011 hPa | 0 mm | 1.34 m/s, 0° | 832 W/m² | - |
| 1777975862 | 12.78° C | 61% | 1010.9 hPa | 0 mm | 0.89 m/s, 63° | 830 W/m² | - |
| 1777975742 | 12.78° C | 61% | 1011 hPa | 0 mm | 3.58 m/s, 65° | 830 W/m² | - |
| 1777975622 | 12.78° C | 61% | 1010.9 hPa | 0 mm | 3.13 m/s, 76° | 324 W/m² | - |
| 1777975503 | 12.78° C | 61% | 1010.9 hPa | 0 mm | 0.89 m/s, 78° | 746 W/m² | - |
| 1777975382 | 12.78° C | 61% | 1011 hPa | 0 mm | 2.68 m/s, 49° | 837 W/m² | - |
| 1777975262 | 12.78° C | 61% | 1010.9 hPa | 0 mm | 1.79 m/s, 61° | 832 W/m² | - |
| 1777975142 | 12.78° C | 60% | 1011 hPa | 0 mm | 0.45 m/s, 0° | 790 W/m² | - |
| 1777975022 | 12.22° C | 60% | 1011.1 hPa | 0 mm | 3.13 m/s, 0° | 768 W/m² | - |
| 1777974903 | 12.22° C | 60% | 1011 hPa | 0 mm | 2.24 m/s, 54° | 619 W/m² | - |
| 1777974783 | 12.22° C | 60% | 1011 hPa | 0 mm | 2.24 m/s, 72° | 800 W/m² | - |
| 1777974664 | 12.22° C | 61% | 1011 hPa | 0 mm | 4.02 m/s, 90° | 775 W/m² | - |
| 1777974542 | 12.22° C | 61% | 1011 hPa | 0 mm | 2.68 m/s, 47° | 775 W/m² | - |
| 1777974422 | 12.22° C | 60% | 1011 hPa | 0 mm | 3.13 m/s, 0° | 155 W/m² | - |
| 1777974303 | 12.22° C | 59% | 1011 hPa | 0 mm | 4.02 m/s, 106° | 225 W/m² | - |
| 1777974182 | 12.22° C | 60% | 1011 hPa | 0 mm | 2.24 m/s, 38° | 893 W/m² | - |
* Rain latest hour (hover to see other rain measurements)
** Current wind speed in m/s (hover to see current wind gust speed)